Regional Weather Roundup
Issued by NWS

Home | Current Version | Previous Version | Text Only | Print | Product List | Glossary Off
Versions: 1 2 3 4 5 6 7 8 9 10 11 12 13 14 15 16 17 18 19 20 21 22 23 24 25 26 27 28 29 30 31 32 33 34 35 36 37 38 39 40 41 42 43 44 45 46 47 48 49 50

000
ASUS43 KBIS 220620
RWRND

NORTH DAKOTA REGIONAL WEATHER ROUNDUP
NATIONAL WEATHER SERVICE BISMARCK ND
100 AM CDT FRI MAY 22 2015

NOTE: "FAIR" INDICATES FEW OR NO CLOUDS BELOW 12,000 FEET WITH NO
SIGNIFICANT WEATHER AND/OR OBSTRUCTIONS TO VISIBILITY.


NDZ001>003-009>011-017-220700-
NORTHWEST NORTH DAKOTA

CITY           SKY/WX    TMP DP  RH WIND       PRES   REMARKS
WILLISTON      CLEAR     56  35  45 E5        30.12R
6HR MIN TEMP:  56; 6HR MAX TEMP:  74;

MINOT          CLEAR     52  37  56 SE6       30.13R
MINOT AFB      CLEAR     44  42  93 CALM      30.12R
$$

NDZ018>021-031>035-040>046-220700-
SOUTHWEST NORTH DAKOTA

CITY           SKY/WX    TMP DP  RH WIND       PRES   REMARKS
BISMARCK       PTCLDY    53  42  66 NE7       30.15R
6HR MIN TEMP:  52; 6HR MAX TEMP:  72;

DICKINSON      CLEAR     46  34  62 S8        30.12S
GARRISON         N/A     50  39  66 CALM      30.14R
6HR MIN TEMP:  50; 6HR MAX TEMP:  73;

HETTINGER ARPT CLEAR     43  32  65 CALM      30.15S
$$

NDZ004>008-012>016-024-026-027-054-220700-
NORTHEAST NORTH DAKOTA

CITY           SKY/WX    TMP DP  RH WIND       PRES   REMARKS
GRAND FORKS    CLEAR     45  40  82 CALM      30.13S
GRND FRKS AFB  CLEAR     42  40  93 W3        30.13S
DEVILS LAKE    CLEAR     52  37  58 S3        30.14R
$$

NDZ022-023-025-028>030-036>039-047>053-220700-
SOUTHEAST NORTH DAKOTA

CITY           SKY/WX    TMP DP  RH WIND       PRES   REMARKS
FARGO          CLEAR     49  41  74 CALM      30.13S
6HR MIN TEMP:  48; 6HR MAX TEMP:  68;

JAMESTOWN      CLEAR     51  40  65 S5        30.14S
$$



USA.gov is the U.S. government's official web portal to all federal, state and local government web resources and services.